Regional Weather Roundup
Issued by NWS

Home | Current Version | Previous Version | Text Only | Print | Product List | Glossary Off
Versions: 1 2 3 4 5 6 7 8 9 10 11 12 13 14 15 16 17 18 19 20 21 22 23 24 25 26 27 28 29 30 31 32 33 34 35 36 37 38 39 40 41 42 43 44 45 46 47 48 49 50

148
ASUS43 KLSX 251107
RWRMO

WEATHER SUMMARY FOR MISSOURI
NATIONAL WEATHER SERVICE SPRINGFIELD MO
600 AM CDT MON SEP 25 2017

NOTE: "FAIR" INDICATES FEW OR NO CLOUDS BELOW 12,000 FEET WITH NO
       SIGNIFICANT WEATHER AND/OR OBSTRUCTIONS TO VISIBILITY.
       CURRENT SKY AND/OR WEATHER CONDITIONS ARE NOT AVAILABLE FOR
       CHILLICOTHE AND FARMINGTON.

MOZ001>031-035>038-043-044-053-054-251200-
...NORTHERN AND WESTERN MISSOURI...

CITY           SKY/WX    TMP DP  RH WIND       PRES   REMARKS
KANSAS CTY INT CLEAR     67  64  90 S7        29.92F
KANSAS C DTWN  CLEAR     72  65  78 S5        29.92S
LEE`S SUMMIT   CLEAR     68  64  87 S8        29.95R
ST JOSEPH      CLEAR     69  66  90 SE5       29.91S
CHILLICOTHE      N/A     66  66 100 CALM      29.96R
KIRKSVILLE     PTCLDY    67  63  87 S5        29.97S

$$
MOZ066>068-077>081-088>096-101>105-251200-
...SOUTHWEST MISSOURI...

CITY           SKY/WX    TMP DP  RH WIND       PRES   REMARKS
SPRINGFIELD    CLEAR     67  65  93 S9        29.98R
JOPLIN         CLEAR     70  65  84 SE8       29.95S
BRANSON        CLEAR     66  64  94 CALM      30.01R

$$
MOZ032>034-039>042-045>050-055>058-069>072-251200-
...CENTRAL MISSOURI...

CITY           SKY/WX    TMP DP  RH WIND       PRES   REMARKS
COLUMBIA       CLEAR     67  64  90 S7        29.98R
JEFFERSON CITY CLEAR     67  63  87 SE6       29.97R
ROLLA          CLEAR     69  64  84 S9        30.01R
SEDALIA        CLOUDY    71  67  87 S8        29.97R
WHITEMAN AFB   CLEAR     65  65 100 S5        29.95R
WARRENSBURG    CLEAR     64  61  88 SE5       29.94S
OSAGE BEACH    CLEAR     66  64  93 SE3       29.99R

$$
MOZ051-052-059>065-251200-
...EAST CENTRAL MISSOURI...

CITY           SKY/WX    TMP DP  RH WIND       PRES   REMARKS
ST LOUIS INTL  CLEAR     71  65  81 CALM      30.00R
SPIRIT OF STL  CLEAR     64  64 100 CALM      29.99R
ST CHARLES     CLEAR     65  63  93 CALM      29.98R

$$
MOZ072>076-082>087-097>100-106>115-251200-
...SOUTH CENTRAL AND SOUTHEAST MISSOURI...

CITY           SKY/WX    TMP DP  RH WIND       PRES   REMARKS
CAPE GIRARDEAU CLEAR     63  61  93 E5        30.00R
FARMINGTON     CLEAR     64  62  93 CALM      30.03R
POPLAR BLUFF   CLEAR     63  63 100 CALM      30.00R FOG
WEST PLAINS    CLEAR     62  60  93 CALM      30.03R

$$



USA.gov is the U.S. government's official web portal to all federal, state and local government web resources and services.